Burns Flat, OK

2:15 AM CST on January 20, 2017 (GMT -0600)
Clinton-Sherman

Weather History for KCSM - February, 2014

Change the Weather History Date:

Monday, February 17, 2014

  Actual Average Record
Temperature  
Mean Temperature 51 °F -  
Max Temperature 63 °F 52 °F 80 °F (2011)
Min Temperature 39 °F 32 °F 18 °F (2006)
Degree Days  
Heating Degree Days 14    
Growing Degree Days 1 (Base 50)    
Moisture  
Dew Point 25 °F    
Average Humidity 34    
Maximum Humidity 63    
Minimum Humidity 18    
Precipitation  
Precipitation 0.00 in - - ()
Sea Level Pressure  
Sea Level Pressure 30.06 in    
Wind  
Wind Speed 17 mph (WNW)    
Max Wind Speed 29 mph    
Max Gust Speed 38 mph    
Visibility 10 miles    
Events      
Averages and records for this station are not official NWS values.
T = Trace of Precipitation, MM = Missing Value Source: NWS Daily Summary

Daily Weather History Graph

Daily Weather History Graph

Search for Another Location

Airport or City:

Trip Planner

Search our weather history database for the weather conditions in past years. The results will help you decide how hot, cold, wet, or windy it might be!

Date:

Astronomy

Feb. 17, 2014 Rise Set
Actual Time 7:20 AM CST 6:21 PM CST
Civil Twilight 6:55 AM CST 6:47 PM CST
Nautical Twilight 6:25 AM CST 7:16 PM CST
Astronomical Twilight 5:55 AM CST 7:46 PM CST
Moon 9:09 PM CST (2/17) 8:29 AM CST (2/17)
Length of Visible Light 11h 52m
Length of Day
11h 00m
Waning Gibbous, 93% of the Moon is Illuminated
Feb 17
Waning Gibbous
Feb 22
Last Quarter
Mar 1
New
Mar 8
First Quarter
Mar 16
Full

Hourly Weather History & Observations

Time (CST) Temp. Windchill Dew Point Humidity Pressure Visibility Wind Dir Wind Speed Gust Speed Precip Events Conditions
12:53 AM 53.1 °F - 39.0 °F 59% 29.75 in 10.0 mi SW 15.0 mph - N/A   Clear
1:53 AM 51.1 °F - 39.0 °F 63% 29.77 in 10.0 mi WSW 13.8 mph - N/A   Clear
2:53 AM 61.0 °F - 28.9 °F 30% 29.80 in 10.0 mi WNW 23.0 mph 38.0 mph N/A   Clear
3:01 AM 62.6 °F - 26.6 °F 26% 29.85 in 10.0 mi NW 28.8 mph 36.8 mph N/A   Clear
3:53 AM 57.0 °F - 28.9 °F 34% 29.88 in 10.0 mi NNW 25.3 mph 31.1 mph N/A   Clear
4:53 AM 55.0 °F - 25.0 °F 31% 29.96 in 10.0 mi NNW 21.9 mph 34.5 mph N/A   Clear
5:53 AM 54.0 °F - 19.9 °F 26% 30.01 in 10.0 mi North 23.0 mph 29.9 mph N/A   Clear
6:53 AM 51.1 °F - 17.1 °F 26% 30.06 in 10.0 mi North 26.5 mph 34.5 mph N/A   Clear
7:53 AM 50.0 °F - 21.0 °F 32% 30.10 in 10.0 mi North 23.0 mph 32.2 mph N/A   Clear
8:53 AM 50.0 °F - 26.1 °F 39% 30.14 in 10.0 mi North 15.0 mph - N/A   Clear
9:53 AM 53.1 °F - 27.0 °F 37% 30.17 in 10.0 mi North 23.0 mph 28.8 mph N/A   Clear
10:53 AM 57.9 °F - 25.0 °F 28% 30.17 in 10.0 mi North 20.7 mph 29.9 mph N/A   Clear
11:53 AM 60.1 °F - 24.1 °F 25% 30.17 in 10.0 mi NNW 16.1 mph 25.3 mph N/A   Clear
12:53 PM 61.0 °F - 21.9 °F 22% 30.16 in 10.0 mi North 18.4 mph 23.0 mph N/A   Clear
1:53 PM 62.1 °F - 21.0 °F 21% 30.14 in 10.0 mi North 10.4 mph - N/A   Clear
2:53 PM 62.1 °F - 21.0 °F 21% 30.13 in 10.0 mi West 6.9 mph - N/A   Clear
3:53 PM 63.0 °F - 19.0 °F 18% 30.13 in 10.0 mi NW 5.8 mph - N/A   Clear
4:53 PM 62.1 °F - 19.0 °F 19% 30.13 in 10.0 mi South 4.6 mph - N/A   Clear
5:53 PM 57.9 °F - 23.0 °F 26% 30.13 in 10.0 mi South 4.6 mph - N/A   Clear
6:53 PM 50.0 °F - 21.9 °F 33% 30.14 in 10.0 mi SSE 6.9 mph - N/A   Clear
7:53 PM 45.0 °F 40.6 °F 24.1 °F 44% 30.15 in 10.0 mi SSE 8.1 mph - N/A   Clear
8:53 PM 39.9 °F 33.4 °F 23.0 °F 51% 30.16 in 10.0 mi South 10.4 mph - N/A   Clear
9:53 PM 43.0 °F 36.8 °F 24.1 °F 47% 30.15 in 10.0 mi South 11.5 mph - N/A   Clear
10:53 PM 44.1 °F 37.4 °F 24.1 °F 45% 30.12 in 10.0 mi South 13.8 mph - N/A   Clear
11:53 PM 43.0 °F 35.4 °F 24.1 °F 47% 30.09 in 10.0 mi SSW 16.1 mph - N/A   Clear